Regional Weather Roundup
Issued by NWS Sterling, VA

Home | Current Version | Previous Version | Text Only | Print | Product List | Glossary Off
Versions: 1 2 3 4 5 6 7 8 9 10 11 12 13 14 15 16 17 18 19 20 21 22 23 24 25 26 27 28 29 30 31 32 33 34 35 36 37 38 39 40 41 42 43 44 45 46 47 48 49 50

000
ASUS41 KLWX 160810
RWRLWX

REGIONAL WEATHER ROUNDUP
NATIONAL WEATHER SERVICE BALTIMORE MD/WASHINGTON DC
400 AM EDT TUE SEP 16 2014

Note: "FAIR" indicates few or no clouds below 12,000 feet
with no significant weather and/or obstructions to visibility.
 TC=TEMPERATURE CELSIUS

 * =Non NWS site. Station does not report precipitation (e.g. rain,
    snow, etc.), thunder, or fog.

DCZ001-MDZ009-015-VAZ040>042-051-053>054-160900-
WASHINGTON METRO

CITY           SKY/WX    TMP DP  RH WIND       PRES   REMARKS
WASHINGTON NAT CLOUDY    68  61  78 W3        30.01F
DULLES         MOCLDY    60  59  96 CALM      30.01F
ANDREWS AFB    CLOUDY    64  62  93 SW5       30.00F
QUANTICO       CLOUDY    66  61  84 SW5       30.01F
COLLEGE PARK*  CLOUDY    63  61  94 NW3       30.00F
LEESBURG*      PTCLDY    59  59 100 CALM      30.02S
MANASSAS*      MOCLDY    63  63 100 N3        30.01S
GAITHERSBURG*  PTCLDY    63  59  88 CALM      30.05S

$$

MDZ006>007-011-014-160900-
BALTIMORE METRO

CITY           SKY/WX    TMP DP  RH WIND       PRES   REMARKS
BWI AIRPORT    MOCLDY    61  59  93 W3        30.00F
MD SCIENCE CTR   N/A     65  59  81 MISG      30.00F
MARTIN STATE   MOCLDY    64  63  94 CALM      30.01F
ANNAPOLIS      CLOUDY    66  61  84 S3        29.99F
FORT MEADE*    CLOUDY    57  55  94 CALM      30.02F

$$

MDZ012-015-019>023-160900-
MARYLAND EASTERN SHORE

CITY           SKY/WX    TMP DP  RH WIND       PRES   REMARKS
OCEAN CITY     CLOUDY    64  59  83 CALM      30.04F
SALISBURY        N/A    N/A N/A N/A MISG        N/A
BAY BRIDGE AP*   N/A     68  61  77 S6        30.00F
CAMBRIDGE*     MOCLDY    61  59  94 CALM      30.01F
EASTON*        MOCLDY    63  63 100 CALM      30.05F

$$

MDZ017>025-160900-
SOUTHERN MARYLAND

CITY           SKY/WX    TMP DP  RH WIND       PRES   REMARKS
PATUXENT RIVER LGT RAIN  66  62  87 S6        30.01F
ST INIGOES     CLOUDY    68  61  78 S6        30.01F
LEONARDTOWN*   CLOUDY    64  61  88 SW3       30.03F

$$

MDZ003>005-160900-
NORTH CENTRAL MARYLAND

CITY           SKY/WX    TMP DP  RH WIND       PRES   REMARKS
FREDERICK*     MOCLDY    59  57  94 CALM      30.04S FOG
HAGERSTOWN APT CLOUDY    60  54  80 CALM      30.01F
WESTMINSTER*   MOCLDY    61  57  88 SW5       30.01F

$$

MDZ501>502-160900-
WESTERN MARYLAND

CITY           SKY/WX    TMP DP  RH WIND       PRES   REMARKS
OAKLAND*       CLOUDY    54  54 100 W8        30.07F
CUMBERLAND*    PTCLDY    55  52  88 N3        30.07S

$$

VAZ025>031-160900-
SHENANDOAH VALLEY

CITY           SKY/WX    TMP DP  RH WIND       PRES   REMARKS
WINCHESTER*    PTCLDY    55  54  94 CALM      30.02F
STAUNTON*      PTCLDY    59  57  92 CALM      30.05F FOG

$$

WVZ021-048>050-054>055-160900-
EASTERN WEST VIRGINIA PANHANDLE

CITY           SKY/WX    TMP DP  RH WIND       PRES   REMARKS
MARTINSBURG    MOCLDY    58  54  86 CALM      30.02F
PETERSBURG*    CLOUDY    58  57  94 CALM      30.04F

$$

VAZ036>039-050-160900-
CENTRAL FOOTHILLS

CITY           SKY/WX    TMP DP  RH WIND       PRES   REMARKS
CHARLOTTESVILL PTCLDY    64  62  93 SW6       30.02S
ORANGE*        PTCLDY    61  59  94 S6        30.03S

$$

VAZ055>057-160900-
NORTH AND CENTRAL PIEDMONT

CITY           SKY/WX    TMP DP  RH WIND       PRES   REMARKS
FREDERICKSBRG* CLOUDY    66  63  90 CALM      30.00F
STAFFORD*      MOCLDY    62  62 100 CALM      30.04F

$$

NCZ024-NYZ072-PAZ021-071-VAZ022-071-160900-
OTHER REGIONAL OBSERVATIONS

CITY           SKY/WX    TMP DP  RH WIND       PRES   REMARKS
NEW YORK CITY  MOCLDY    62  53  72 VRB5      30.07S
PHILADELPHIA   CLOUDY    62  55  77 E7        30.02F
PITTSBURGH     CLOUDY    56  55  97 CALM      30.05S FOG
ROANOKE        CLEAR     64  60  87 N6        30.07S
RICHMOND       MOCLDY    66  63  90 S3        30.02F
RALEIGH        MOCLDY    68  65  90 SW5       30.04F

$$

ANZ530>537-160900-
MARINE OBSERVATIONS

STATION/POSITION TIME  TEMP    WIND        PRES
                       AIR SEA DIR/SP/G
                 (UTC) (F)     (DEG/KT/KT) (MB)
THOMAS PT LIGHT  0800   68 74  190/ 11/ 13 1016.6F
BALT KEY BRIDGE  0800   65     190/  5/  6 1015.6F
COVE POINT       0800   67     220/ 11/ 13 1016.0F
LEWISETTA        0800   67 73  210/  8/ 10 1015.9F
SOLOMONS ISLAND  0800      76                N/A
PINEY POINT      0800          220/ 15/ 16   N/A

$$



USA.gov is the U.S. government's official web portal to all federal, state and local government web resources and services.